星链-11307 (STARLINK-11307)

导读 | 星芒AI

STARLINK-11307 是 SpaceX 星链计划中的一颗低轨道通信卫星,属于第5批部署的星链卫星群。该卫星于2020年5月23日随猎鹰9号火箭发射升空,旨在为全球提供高速互联网服务。它运行在约550公里高的近地轨道,设计寿命为5至7年。STARLINK-11307 采用先进相控阵天线和激光通信技术,支持低延迟、高带宽的网络连接,主要服务于偏远和网络基础设施薄弱的地区。

基本信息
目录编号:
61210
目录名称:
STARLINK-11307
国际标识:
2024-171L
轨道中心:
EARTH
卫星名称:
星链-11307
卫星全名:
星链-11307 (STARLINK-11307)
卫星状态:
在轨 (已飞行457 天)
发射日期:
2024-09-20 UTC
国别 :
美国 (US)
星等 :
--
轨道信息
数据来源 国际轨道数据
星历时间: 2025-12-21T21:35:19+0800
9小时前
查看轨道信息
半长轴: 6737.867km
偏心率: 0.0000836
轨道倾角: 53.160°
近地点辐角 81.111°
升交点赤经 201.739°
平近点角 279.000°
近地点: 359.166km
远地点: 360.294km
周期: 91.737分钟
每日圈数: 15.697091
详细信息
固有亮度:
5
最大亮度:
2.5
卫星平台:
Starlink V1.0
覆盖范围:
全球
运营商:
太空探索技术公司
运营商所在国:
美国
制造商(研发单位):
太空探索技术公司
制造商所在国:
美国
使用方式:
暂无
卫星简介
Starlink 计划是 SpaceX 推出的全球卫星互联网项目,通过发射低轨道卫星,为全球尤其是偏远地区提供高速、低延迟的互联网服务。自 2019 年起,Starlink 已部署数千颗卫星,旨在缩小全球数字鸿沟,推动互联网普及。该项目还为军事、航空等行业提供通信支持,带来广泛经济效益。
2D轨道图
3D轨道图
轨道高度分析图
轨道倾角分析图
轨道综合分析图
查看轨道综合分析图